This is the latest recevied weather packets stored in our database for station/object KF7SOJ. If no packets are shown the sender has not sent any weather packets the latest 10 day(s).
| Time | Temp. | Humidity | Pressure | Rain* | Wind** | Luminosity | Snow |
|---|---|---|---|---|---|---|---|
| 1788421755 | 16.67° C | 45% | 926 hPa | 0 mm | - | 0 W/m² | - |
| 1788421454 | 17.78° C | 44% | 926.1 hPa | 0 mm | - | 0 W/m² | - |
| 1788421150 | 17.78° C | 42% | 925.8 hPa | 0 mm | - | 0 W/m² | - |
| 1788420845 | 17.78° C | 42% | 926.1 hPa | 0 mm | - | 0 W/m² | - |
| 1788420541 | 16.67° C | 43% | 925.8 hPa | 0 mm | - | 0 W/m² | - |
| 1788420236 | 16.67° C | 44% | 925.9 hPa | 0 mm | - | 0 W/m² | - |
| 1788419934 | 17.22° C | 43% | 925.8 hPa | 0 mm | - | 0 W/m² | - |
| 1788419629 | 17.78° C | 41% | 925.8 hPa | 0 mm | - | 0 W/m² | - |
| 1788419324 | 17.78° C | 41% | 925.7 hPa | 0 mm | - | 0 W/m² | - |
| 1788419020 | 18.33° C | 40% | 925.7 hPa | 0 mm | - | 0 W/m² | - |
| 1788418720 | 18.33° C | 40% | 925.6 hPa | 0 mm | - | 0 W/m² | - |
| 1788418419 | 18.33° C | 40% | 925.7 hPa | 0 mm | - | 0 W/m² | - |
| 1788418118 | 18.33° C | 39% | 925.6 hPa | 0 mm | - | 0 W/m² | - |
| 1788417814 | 18.33° C | 40% | 925.6 hPa | 0 mm | - | 0 W/m² | - |
| 1788417510 | 18.33° C | 39% | 925.6 hPa | 0 mm | - | 0 W/m² | - |
| 1788417205 | 18.89° C | 39% | 925.5 hPa | 0 mm | - | 0 W/m² | - |
| 1788416901 | 18.89° C | 38% | 925.3 hPa | 0 mm | - | 0 W/m² | - |
| 1788416600 | 18.89° C | 38% | 925.2 hPa | 0 mm | - | 0 W/m² | - |
| 1788416297 | 18.33° C | 39% | 925.4 hPa | 0 mm | - | 0 W/m² | - |
| 1788415995 | 18.89° C | 38% | 925.3 hPa | 0 mm | - | 0 W/m² | - |
| 1788415692 | 18.89° C | 37% | 925.4 hPa | 0 mm | - | 0 W/m² | - |
| 1788415391 | 18.89° C | 36% | 925.3 hPa | 0 mm | - | 0 W/m² | - |
| 1788415089 | 18.89° C | 37% | 925.4 hPa | 0 mm | - | 0 W/m² | - |
| 1788414788 | 18.33° C | 39% | 925.5 hPa | 0 mm | - | 0 W/m² | - |
| 1788414483 | 18.33° C | 39% | 925.6 hPa | 0 mm | - | 0 W/m² | - |
* Rain latest hour (hover to see other rain measurements)
** Current wind speed in m/s (hover to see current wind gust speed)